Location: Fort Wayne
(41.1310°N, 85.1290°W)
Time: 16:56:57
(UTC-05:00)

Vanguard 3 - Visible Passes

Search period start: 24 November 2017 00:00
Search period end: 04 December 2017 00:00
Orbit: 510 x 3263 km, 33.3° (Epoch: 24 November)

Date Brightness Start Highest point End Pass type
(mag) Time Alt. Az. Time Alt. Az. Time Alt. Az.
24 Nov 9.0 19:30:29 10° WSW 19:38:21 54° SSE 19:43:03 38° ESE visible
24 Nov 9.7 21:41:20 10° W 21:47:37 43° WSW 21:47:37 43° WSW visible
25 Nov 9.0 18:18:04 10° SW 18:24:23 41° SSE 18:33:15 15° E visible
25 Nov 9.1 20:28:05 10° WSW 20:36:56 59° S 20:37:49 58° SSE visible
25 Nov 10.5 22:39:36 10° W 22:42:23 21° W 22:42:23 21° W visible
26 Nov 8.8 19:15:14 10° WSW 19:22:27 53° SSE 19:28:03 31° ESE visible
26 Nov 9.5 21:25:59 10° W 21:32:37 46° SW 21:32:37 46° SW visible
27 Nov 8.8 18:02:47 10° SW 18:08:35 41° SSE 18:18:17 10° E visible
27 Nov 9.0 20:12:49 10° WSW 20:20:57 57° S 20:22:51 52° SSE visible
27 Nov 10.4 22:24:14 10° W 22:27:26 23° WSW 22:27:26 23° WSW visible
28 Nov 8.7 19:00:01 10° WSW 19:06:38 52° S 19:13:08 25° ESE visible
28 Nov 9.4 21:10:42 10° W 21:17:42 47° SW 21:17:42 47° SW visible
29 Nov 8.7 17:47:33 10° SW 17:52:53 41° SSE 18:01:50 10° E visible
29 Nov 8.9 19:57:37 10° WSW 20:05:03 53° S 20:08:01 44° SE visible
29 Nov 10.2 22:08:58 10° W 22:12:35 25° WSW 22:12:35 25° WSW visible
30 Nov 8.6 18:44:50 10° WSW 18:50:55 50° S 18:58:22 19° ESE visible
30 Nov 9.3 20:55:30 10° W 21:02:57 45° SSW 21:02:57 45° SSW visible
01 Dec 8.5 17:32:22 10° SW 17:37:16 41° SSE 17:45:20 10° E visible
01 Dec 8.9 19:42:28 10° WSW 19:49:15 49° S 19:53:21 34° SE visible
01 Dec 10.1 21:53:51 10° W 21:57:57 26° WSW 21:57:57 26° WSW visible
02 Dec 8.5 18:29:43 10° WSW 18:35:16 47° S 18:43:50 13° ESE visible
02 Dec 9.4 20:40:23 10° W 20:47:47 40° SSW 20:48:25 39° S visible
03 Dec 8.9 19:27:21 10° WSW 19:33:32 43° S 19:38:58 25° SE visible
03 Dec 10.1 21:38:54 10° WSW 21:43:34 25° SW 21:43:34 25° SW visible
